| time (UTC) | temp F | wind direction | speed knots | gust knots | rain 1hr in | rain 24hr in | rain mn in | humidity % | barometer mb |
| 20260506033034 | 41 | 285 | 0.0 | 4.3 | 0.00 | 0.00 | 0.00 | 89 | 1015.0 |
| 20260506031534 | 42 | 0 | 0.9 | 4.3 | 0.00 | 0.00 | 0.00 | 88 | 1015.0 |
| 20260506030034 | 42 | 337 | 0.9 | 3.5 | 0.00 | 0.00 | 0.00 | 89 | 1014.9 |
| 20260506024534 | 42 | 292 | 0.0 | 3.5 | 0.00 | 0.00 | 0.00 | 88 | 1014.7 |
| 20260506023036 | 43 | 0 | 0.0 | 2.6 | 0.00 | 0.00 | 0.00 | 88 | 1014.7 |
| 20260506021530 | 43 | 270 | 0.9 | 5.2 | 0.00 | 0.00 | 0.00 | 88 | 1014.8 |
| 20260506020105 | 43 | 298 | 0.9 | 3.5 | 0.00 | 0.00 | 0.00 | 87 | 1015.0 |
| 20260506014547 | 43 | 42 | 0.9 | 5.2 | 0.00 | 0.00 | 0.00 | 87 | 1015.0 |
| 20260506013034 | 43 | 10 | 1.7 | 7.0 | 0.00 | 0.00 | 0.00 | 86 | 1015.1 |
| 20260506011534 | 43 | 0 | 1.7 | 5.2 | 0.00 | 0.00 | 0.00 | 85 | 1015.2 |
| 20260506010034 | 44 | 0 | 0.9 | 5.2 | 0.00 | 0.00 | 0.00 | 85 | 1015.2 |
| 20260506004541 | 44 | 272 | 0.9 | 4.3 | 0.00 | 0.00 | 0.00 | 84 | 1015.3 |
| 20260506003034 | 44 | 291 | 1.7 | 3.5 | 0.00 | 0.00 | 0.00 | 83 | 1015.3 |
| 20260506001535 | 44 | 191 | 0.9 | 4.3 | 0.00 | 0.00 | 0.00 | 83 | 1015.4 |
| 20260506000050 | 45 | 302 | 0.9 | 2.6 | 0.00 | 0.00 | 0.00 | 82 | 1015.4 |
| 20260505234540 | 45 | 0 | 0.9 | 3.5 | 0.00 | 0.00 | 0.00 | 81 | 1015.4 |
| 20260505233033 | 45 | 312 | 0.9 | 2.6 | 0.00 | 0.00 | 0.00 | 81 | 1015.6 |
| 20260505231534 | 45 | 0 | 0.9 | 7.0 | 0.00 | 0.00 | 0.00 | 80 | 1015.8 |
| 20260505230041 | 45 | 285 | 1.7 | 7.0 | 0.00 | 0.00 | 0.00 | 81 | 1015.8 |
| 20260505224542 | 46 | 285 | 0.0 | 4.3 | 0.00 | 0.00 | 0.00 | 80 | 1015.7 |
| 20260505223038 | 46 | 310 | 0.0 | 5.2 | 0.00 | 0.00 | 0.00 | 80 | 1015.7 |
| 20260505221534 | 46 | 264 | 0.0 | 2.6 | 0.00 | 0.00 | 0.00 | 80 | 1015.8 |
| 20260505220033 | 46 | 0 | 0.0 | 5.2 | 0.00 | 0.00 | 0.00 | 79 | 1015.9 |
| 20260505214530 | 47 | 285 | 0.9 | 9.6 | 0.00 | 0.00 | 0.00 | 78 | 1015.7 |
| 20260505213035 | 48 | 299 | 2.6 | 7.8 | 0.00 | 0.00 | 0.00 | 81 | 1015.7 |
| 20260505211557 | 48 | 0 | 0.0 | 3.5 | 0.00 | 0.00 | 0.00 | 82 | 1015.6 |
| 20260505210041 | 48 | 233 | 0.0 | 4.3 | 0.00 | 0.00 | 0.00 | 82 | 1015.6 |
| 20260505204541 | 48 | 0 | 0.9 | 4.3 | 0.00 | 0.00 | 0.00 | 80 | 1015.5 |
| 20260505203031 | 48 | 0 | 0.0 | 2.6 | 0.00 | 0.00 | 0.00 | 79 | 1015.5 |
| 20260505201533 | 48 | 0 | 0.9 | 8.7 | 0.00 | 0.00 | 0.00 | 78 | 1015.4 |
| 20260505200030 | 48 | 147 | 1.7 | 8.7 | 0.00 | 0.00 | 0.00 | 76 | 1015.2 |
| 20260505194534 | 49 | 161 | 0.9 | 7.0 | 0.00 | 0.00 | 0.00 | 75 | 1015.1 |
| 20260505193031 | 49 | 134 | 0.0 | 6.1 | 0.00 | 0.00 | 0.00 | 77 | 1015.1 |
| 20260505191535 | 50 | 175 | 1.7 | 10.4 | 0.00 | 0.00 | 0.00 | 79 | 1014.9 |
| 20260505190031 | 50 | 221 | 2.6 | 8.7 | 0.00 | 0.00 | 0.00 | 79 | 1014.8 |
| 20260505184539 | 51 | 174 | 1.7 | 6.1 | 0.00 | 0.00 | 0.00 | 78 | 1014.8 |
| 20260505183033 | 51 | 0 | 0.9 | 7.0 | 0.00 | 0.00 | 0.00 | 77 | 1014.5 |
| 20260505181539 | 51 | 97 | 1.7 | 9.6 | 0.00 | 0.00 | 0.00 | 75 | 1014.6 |
| 20260505180033 | 52 | 98 | 1.7 | 8.7 | 0.00 | 0.00 | 0.00 | 75 | 1014.6 |
| 20260505174537 | 53 | 165 | 1.7 | 7.0 | 0.00 | 0.00 | 0.00 | 73 | 1014.4 |
| 20260505173032 | 54 | 139 | 1.7 | 8.7 | 0.00 | 0.00 | 0.00 | 74 | 1014.3 |
| 20260505171539 | 56 | 25 | 1.7 | 8.7 | 0.00 | 0.00 | 0.00 | 72 | 1014.1 |
| 20260505170034 | 57 | 268 | 0.9 | 9.6 | 0.00 | 0.00 | 0.00 | 69 | 1013.9 |
| 20260505164534 | 58 | 317 | 0.9 | 5.2 | 0.00 | 0.00 | 0.00 | 62 | 1013.8 |
| 20260505163030 | 58 | 56 | 0.9 | 5.2 | 0.00 | 0.00 | 0.00 | 61 | 1013.8 |
| 20260505161530 | 58 | 331 | 1.7 | 7.0 | 0.00 | 0.00 | 0.00 | 61 | 1013.8 |
| 20260505153040 | 59 | 152 | 1.7 | 7.0 | 0.00 | 0.00 | 0.00 | 59 | 1013.8 |
| 20260505151531 | 59 | 0 | 0.9 | 5.2 | 0.00 | 0.00 | 0.00 | 60 | 1013.8 |
| 20260505124532 | 58 | 316 | 1.7 | 7.8 | 0.00 | 0.00 | 0.00 | 66 | 1013.9 |
| 20260505123045 | 58 | 295 | 1.7 | 6.1 | 0.00 | 0.00 | 0.00 | 64 | 1014.1 |
| 20260505121535 | 59 | 280 | 2.6 | 7.0 | 0.00 | 0.00 | 0.00 | 63 | 1013.9 |
| 20260505120037 | 59 | 285 | 1.7 | 7.8 | 0.00 | 0.00 | 0.00 | 62 | 1013.9 |
| 20260505114531 | 59 | 14 | 3.5 | 10.4 | 0.00 | 0.00 | 0.00 | 65 | 1013.9 |
| 20260505113033 | 59 | 318 | 1.7 | 7.0 | 0.00 | 0.00 | 0.00 | 66 | 1013.9 |
| 20260505111535 | 59 | 252 | 1.7 | 7.8 | 0.00 | 0.00 | 0.00 | 64 | 1014.0 |
| 20260505101531 | 58 | 331 | 1.7 | 7.0 | 0.00 | 0.00 | 0.00 | 69 | 1014.0 |
| 20260505100034 | 58 | 258 | 1.7 | 7.8 | 0.00 | 0.00 | 0.00 | 73 | 1014.4 |
| 20260505094532 | 56 | 339 | 1.7 | 7.0 | 0.00 | 0.00 | 0.00 | 73 | 1014.4 |
| 20260505093031 | 56 | 360 | 1.7 | 7.0 | 0.00 | 0.00 | 0.00 | 76 | 1014.4 |
| 20260505091533 | 54 | 316 | 2.6 | 8.7 | 0.00 | 0.00 | 0.00 | 78 | 1014.6 |
| 20260505090036 | 55 | 298 | 0.9 | 5.2 | 0.00 | 0.00 | 0.00 | 78 | 1014.7 |
| 20260505084536 | 53 | 355 | 0.9 | 6.1 | 0.00 | 0.00 | 0.00 | 79 | 1014.7 |
| 20260505083032 | 51 | 317 | 1.7 | 3.5 | 0.00 | 0.00 | 0.00 | 85 | 1014.7 |
| 20260505081532 | 50 | 306 | 0.9 | 6.1 | 0.00 | 0.00 | 0.00 | 85 | 1014.7 |
| 20260505080034 | 49 | 285 | 2.6 | 4.3 | 0.00 | 0.00 | 0.00 | 87 | 1014.6 |
| 20260505074534 | 49 | 350 | 0.9 | 3.5 | 0.00 | 0.00 | 0.00 | 89 | 1014.6 |
| 20260505073035 | 48 | 0 | 1.7 | 4.3 | 0.00 | 0.00 | 0.00 | 91 | 1014.5 |
| 20260505071532 | 48 | 332 | 1.7 | 4.3 | 0.00 | 0.00 | 0.00 | 95 | 1014.6 |
| 20260505070034 | 47 | 294 | 2.6 | 4.3 | 0.00 | 0.00 | 0.00 | 96 | 1014.7 |
| 20260505064544 | 47 | 322 | 0.9 | 2.6 | 0.00 | 0.00 | 0.00 | 98 | 1014.9 |
| 20260505063034 | 46 | 334 | 0.0 | 2.6 | 0.00 | 0.00 | 0.00 | 98 | 1014.8 |
| 20260505061532 | 45 | 0 | 0.0 | 1.7 | 0.00 | 0.00 | 0.00 | 98 | 1014.9 |
| 20260505060030 | 44 | 299 | 0.0 | 1.7 | 0.00 | 0.00 | 0.00 | 98 | 1015.0 |
| 20260505054544 | 42 | 298 | 0.9 | 2.6 | 0.00 | 0.00 | 0.00 | 98 | 1014.9 |
| 20260505053029 | 41 | 0 | 0.0 | 0.9 | 0.00 | 0.00 | 0.00 | 97 | 1014.8 |
| 20260505051532 | 40 | 0 | 0.0 | 0.0 | 0.00 | 0.00 | 0.00 | 97 | 1014.7 |
| 20260505041532 | 39 | 0 | 0.0 | 0.9 | 0.00 | 0.00 | 0.00 | 96 | 1014.5 |
| 20260505040034 | 39 | 0 | 0.0 | 0.0 | 0.00 | 0.00 | 0.00 | 95 | 1014.5 |
| 20260505034538 | 39 | 0 | 0.0 | 0.9 | 0.00 | 0.00 | 0.00 | 95 | 1014.4 |